Grand Marais, MN

3:53 PM CST on February 23, 2017 (GMT -0600)
Grand Marais

Weather History for KGNA - December, 2012

Change the Weather History Date:

Saturday, December 8, 2012

  Actual Average (KCKC) Record (KCKC)
Temperature  
Mean Temperature 20 °F -  
Max Temperature 28 °F 25 °F 35 °F (1999)
Min Temperature 12 °F 13 °F -20 °F (2013)
Degree Days  
Heating Degree Days 45    
Moisture  
Dew Point 10 °F    
Average Humidity 61    
Maximum Humidity 72    
Minimum Humidity 46    
Precipitation  
Precipitation 0.00 in - - ()
Sea Level Pressure  
Sea Level Pressure 30.15 in    
Wind  
Wind Speed 6 mph (North)    
Max Wind Speed 10 mph    
Max Gust Speed 17 mph    
Averages and records for this station are not official NWS values.
T = Trace of Precipitation, MM = Missing Value Source: NWS Daily Summary

Daily Weather History Graph

Daily Weather History Graph

Search for Another Location

Airport or City:

Trip Planner

Search our weather history database for the weather conditions in past years. The results will help you decide how hot, cold, wet, or windy it might be!

Date:

Astronomy

Dec. 08, 2012 Rise Set
Actual Time 7:37 AM CST 4:09 PM CST
Civil Twilight 7:01 AM CST 4:45 PM CST
Nautical Twilight 6:22 AM CST 5:24 PM CST
Astronomical Twilight 5:45 AM CST 6:01 PM CST
Moon 1:43 AM CST (12/8) 12:56 PM CST (12/8)
Length of Visible Light 9h 43m
Length of Day
8h 31m
Waning Crescent, 28% of the Moon is Illuminated
Dec 8
Waning Crescent
Dec 13
New
Dec 19
First Quarter
Dec 28
Full
Jan 4
Last Quarter

Hourly Weather History & Observations

Time (CST) Temp. Windchill Dew Point Humidity Pressure Visibility Wind Dir Wind Speed Gust Speed Precip Events Conditions
12:56 AM 17.1 °F 8.7 °F 5.0 °F 59% 30.12 in - NNW 5.8 mph 17.3 mph N/A   Unknown
1:56 AM 16.0 °F 5.3 °F 5.0 °F 62% 30.13 in - North 8.1 mph - N/A   Unknown
2:56 AM 15.1 °F 4.2 °F 3.9 °F 61% 30.13 in - North 8.1 mph 16.1 mph N/A   Unknown
3:56 AM 14.0 °F 1.2 °F 3.0 °F 62% 30.12 in - North 10.4 mph 17.3 mph N/A   Unknown
4:56 AM 14.0 °F 2.0 °F 3.0 °F 62% 30.13 in - North 9.2 mph - N/A   Unknown
5:56 AM 12.9 °F 0.7 °F 3.0 °F 65% 30.13 in - North 9.2 mph - N/A   Unknown
6:56 AM 12.9 °F 0.7 °F 3.0 °F 65% 30.13 in - NNW 9.2 mph - N/A   Unknown
7:56 AM 14.0 °F 5.1 °F 1.9 °F 59% 30.14 in - North 5.8 mph - N/A   Unknown
8:56 AM 17.1 °F 8.7 °F 3.0 °F 54% 30.16 in - NNW 5.8 mph - N/A   Unknown
9:56 AM 21.9 °F 17.2 °F 3.9 °F 46% 30.16 in - Variable 3.5 mph - N/A   Unknown
10:56 AM 23.0 °F - 6.1 °F 48% 30.15 in - Calm Calm - N/A   Unknown
11:56 AM 25.0 °F 20.7 °F 10.0 °F 53% 30.14 in - Variable 3.5 mph - N/A   Unknown
12:56 PM 24.1 °F 19.7 °F 10.9 °F 57% 30.14 in - Variable 3.5 mph - N/A   Unknown
1:56 PM 26.1 °F 20.5 °F 12.9 °F 58% 30.14 in - SSE 4.6 mph - N/A   Unknown
2:56 PM 25.0 °F - 12.9 °F 60% 30.14 in - Calm Calm - N/A   Unknown
3:56 PM 25.0 °F - 14.0 °F 63% 30.15 in - Calm Calm - N/A   Unknown
4:56 PM 26.1 °F - 15.1 °F 63% 30.17 in - Calm Calm - N/A   Unknown
5:56 PM 26.1 °F 21.9 °F 15.1 °F 63% 30.18 in - North 3.5 mph - N/A   Unknown
6:56 PM 26.1 °F 20.5 °F 15.1 °F 63% 30.18 in - NNE 4.6 mph - N/A   Unknown
7:56 PM 26.1 °F 20.5 °F 15.1 °F 63% 30.19 in - NNE 4.6 mph - N/A   Unknown
8:56 PM 26.1 °F 20.5 °F 16.0 °F 66% 30.19 in - Variable 4.6 mph - N/A   Unknown
9:56 PM 27.0 °F 23.0 °F 17.1 °F 66% 30.19 in - NNE 3.5 mph - N/A   Unknown
10:56 PM 28.0 °F 24.2 °F 19.0 °F 69% 30.21 in - NNE 3.5 mph - N/A   Unknown
11:56 PM 28.0 °F 24.2 °F 19.9 °F 72% 30.20 in - NNE 3.5 mph - N/A   Unknown